[[{"header":{"parameterUnit":"m.s-1","parameterCategory":1,"la1":30.2991,"la2":30.254,"lo1":-89.0895,"lo2":-89.0444,"dy":0.0017,"dx":0.0017,"nx":28,"ny":28,"refTime":"2024-03-02T03:00:00:Z","depth":0,"parameterNumber":2,"parameterNumberName":"U-component_of_WINDS"},"data":[0,0,0,0,0,0,0,0,0,0,0,0,0,0,0,0,0,0,0,0,0,0,0,0,0,0,0,0,0,0,0,0,0,0,0,0,0,0,0,0,0,0,0,0,0,0,0,0,0,0,0,0,0,0,0,0,0,0,-0.1248,-0.1249,0,-0.1325,-0.1326,-0.1327,-0.1362,-0.1362,-0.1362,-0.1362,-0.1442,-0.1444,-0.1447,0,0,0,0,0,0,0,0,0,0,0,0,0,-0.1132,-0.1134,-0.1248,-0.1249,-0.125,-0.1325,-0.1326,-0.1327,-0.1362,-0.1362,-0.1362,-0.1362,-0.1441,-0.1444,-0.1447,0,0,0,0,0,0,0,0,0,0,0,0,0,-0.1193,-0.1134,-0.1248,-0.1277,-0.128,-0.1325,-0.1326,-0.1328,-0.1362,-0.1362,-0.1362,-0.1362,-0.1441,-0.1444,-0.1447,-0.147,0,0,-0.1457,-0.1459,0,0,0,0,0,0,0,0,-0.1189,-0.1197,-0.1271,-0.1275,-0.1278,-0.1334,-0.1315,-0.1375,-0.1362,-0.1331,-0.1362,-0.1362,-0.1406,-0.1413,-0.1427,-0.1474,-0.1477,-0.1458,-0.146,-0.1461,-0.1462,0,0,0,0,0,0,0,-0.1185,-0.1194,-0.1279,-0.1272,-0.1277,-0.1286,-0.1294,-0.1326,-0.1368,-0.1334,-0.1336,-0.1345,-0.1408,-0.1424,-0.1429,-0.1479,-0.1457,-0.146,-0.1462,-0.1464,-0.1547,-0.1548,0,0,0,0,0,0,-0.1176,-0.119,-0.1276,-0.1281,-0.1233,-0.1288,-0.1297,-0.1316,-0.1368,-0.1376,-0.1345,-0.1346,-0.1418,-0.1426,-0.1432,-0.1463,-0.1461,-0.1464,-0.1466,-0.1547,-0.1547,-0.1548,0,0,0,0,0,0,-0.1173,-0.1183,-0.1273,-0.1236,-0.1249,-0.129,-0.1311,-0.1318,-0.1334,-0.1377,-0.1385,-0.1353,-0.1419,-0.1428,-0.146,-0.1466,-0.1466,-0.1469,-0.1547,-0.1547,-0.1547,-0.1523,0,0,0,0,0,0,-0.117,-0.1182,-0.1191,-0.1236,-0.125,-0.13,-0.1311,-0.1319,-0.1339,-0.1342,-0.1387,-0.1394,-0.1419,-0.1455,-0.1464,-0.147,-0.1471,-0.1547,-0.1547,-0.1547,-0.1524,-0.1523,-0.1522,0,0,0,0,0,-0.1166,-0.1182,-0.1192,-0.1202,-0.1263,-0.13,-0.1308,-0.1336,-0.1339,-0.1349,-0.1377,-0.1393,-0.1464,-0.1458,-0.1468,-0.1476,-0.1546,-0.1547,-0.1547,-0.1524,-0.1523,-0.1522,0,0,0,0,0,0,-0.1137,-0.1188,-0.12,-0.1231,-0.1261,-0.1306,-0.1319,-0.1334,-0.1364,-0.1365,-0.1399,-0.1409,-0.1439,-0.1461,-0.1453,-0.1501,-0.1506,-0.1509,-0.1485,-0.1484,-0.1483,-0.1478,-0.1474,0,0,0,0,0,-0.1134,-0.116,-0.1203,-0.1227,-0.1241,-0.1277,-0.1294,-0.1313,-0.1346,-0.1359,-0.1389,-0.142,-0.1449,-0.1468,-0.1498,-0.1527,-0.1537,-0.1537,-0.1536,-0.1535,-0.1537,-0.1554,-0.1554,-0.1549,-0.1549,-0.1549,0,0,-0.1129,-0.116,-0.1174,-0.1222,-0.1247,-0.1273,-0.1287,-0.1315,-0.1334,-0.1363,-0.1396,-0.1418,-0.1455,-0.1486,-0.1501,-0.1505,-0.154,-0.1536,-0.1534,-0.1537,-0.1554,-0.1554,-0.1555,-0.155,-0.155,-0.1549,0,0,-0.1133,-0.1159,-0.1181,-0.1206,-0.1244,-0.1267,-0.1272,-0.1315,-0.1331,-0.1364,-0.1386,-0.141,-0.146,-0.1485,-0.1505,-0.1517,-0.1532,-0.1525,-0.152,-0.1536,-0.1537,-0.1537,-0.1542,-0.1543,-0.1527,-0.1527,-0.1527,0,-0.1122,-0.1161,-0.119,-0.1216,-0.1236,-0.1263,-0.1285,-0.1308,-0.1354,-0.1367,-0.1371,-0.1433,-0.146,-0.1497,-0.15,-0.1515,-0.1522,-0.1521,-0.1534,-0.1535,-0.1536,-0.154,-0.1542,-0.1526,-0.1526,-0.1526,-0.1526,0,-0.1146,-0.1173,-0.1186,-0.1229,-0.1251,-0.1275,-0.1307,-0.1326,-0.1342,-0.1366,-0.1399,-0.1431,-0.1468,-0.1478,-0.1495,-0.1517,-0.1518,-0.1528,-0.1534,-0.1535,-0.154,-0.1542,-0.1524,-0.1525,-0.1525,-0.1525,0,0,-0.1135,-0.1192,-0.1197,-0.1216,-0.1259,-0.1281,-0.1306,-0.1341,-0.1356,-0.1386,-0.1408,-0.1449,-0.1458,-0.148,-0.15,-0.1514,-0.1521,-0.1521,-0.1523,-0.152,-0.1547,-0.154,-0.1541,-0.1531,-0.1532,-0.1532,-0.1544,0,-0.1145,-0.119,-0.1217,-0.1252,-0.1277,-0.1302,-0.1324,-0.1352,-0.1375,-0.1399,-0.1424,-0.1453,-0.1462,-0.1475,-0.149,-0.1517,-0.1527,-0.1516,-0.1552,-0.1553,-0.1542,-0.1544,-0.1537,-0.1547,-0.1546,-0.1546,-0.1547,0,-0.1163,-0.1192,-0.1229,-0.1268,-0.128,-0.1299,-0.1333,-0.1356,-0.1389,-0.1404,-0.1428,-0.1448,-0.1475,-0.1479,-0.1517,-0.1509,-0.1525,-0.1541,-0.1542,-0.1547,-0.155,-0.1549,-0.155,-0.1552,-0.155,-0.155,-0.1549,0,-0.1151,-0.1199,-0.1228,-0.1244,-0.1291,-0.1303,-0.1323,-0.1356,-0.1375,-0.1405,-0.1418,-0.145,-0.1468,-0.1492,-0.152,-0.152,-0.1555,-0.1562,-0.1569,-0.1568,-0.1576,-0.1575,-0.158,-0.1585,-0.1585,-0.1585,-0.1585,0,-0.1159,-0.1181,-0.1223,-0.124,-0.1265,-0.1295,-0.1319,-0.1342,-0.137,-0.1393,-0.1416,-0.1437,-0.1472,-0.1497,-0.1519,-0.1547,-0.1555,-0.1568,-0.1574,-0.1566,-0.1564,-0.1578,-0.1578,-0.1586,-0.1586,-0.1586,-0.1586,0,-0.1151,-0.118,-0.1212,-0.1254,-0.1264,-0.1281,-0.1317,-0.1335,-0.1357,-0.1385,-0.1394,-0.143,-0.146,-0.149,-0.1531,-0.1546,-0.1574,-0.1581,-0.1562,-0.1565,-0.1571,-0.157,-0.1585,-0.1588,-0.1591,-0.1591,-0.1591,0,-0.1154,-0.1172,-0.1215,-0.1231,-0.1251,-0.1277,-0.1296,-0.1326,-0.1345,-0.1383,-0.1397,-0.1428,-0.1456,-0.1503,-0.1533,-0.1564,-0.1573,-0.1576,-0.1578,-0.1569,-0.1573,-0.1572,-0.1574,-0.1575,-0.1575,-0.1575,-0.1575,0,-0.1158,-0.1171,-0.1198,-0.123,-0.1252,-0.1278,-0.1306,-0.1318,-0.1353,-0.1373,-0.1404,-0.1425,-0.1466,-0.1498,-0.1532,-0.1553,-0.157,-0.1573,-0.1577,-0.157,-0.1558,-0.1565,-0.156,-0.1573,-0.1573,-0.1574,-0.1574,-0.1574,-0.1156,-0.1172,-0.1205,-0.1234,-0.1257,-0.1282,-0.1301,-0.1325,-0.1352,-0.1387,-0.1403,-0.1434,-0.1466,-0.1514,-0.1535,-0.156,-0.1564,-0.1569,-0.157,-0.1571,-0.1569,-0.1554,-0.1566,-0.1566,-0.1566,-0.1566,-0.1567,0,-0.1161,-0.1183,-0.1209,-0.1246,-0.1269,-0.1281,-0.1312,-0.133,-0.1357,-0.1385,-0.1411,-0.1447,-0.1477,-0.1509,-0.1541,-0.1554,-0.1563,-0.1562,-0.1562,-0.1566,-0.1564,-0.1558,-0.1555,-0.1555,-0.1555,-0.1555,-0.1555,-0.1555,-0.1166,-0.1195,-0.1211,-0.1251,-0.1273,-0.1303,-0.132,-0.1343,-0.1365,-0.1403,-0.1428,-0.1449,-0.1478,-0.1513,-0.1541,-0.1549,-0.156,-0.1557,-0.1568,-0.1565,-0.1566,-0.1567,-0.1562,-0.1559,-0.1559,-0.1568,-0.1568,-0.1568]},{"header":{"parameterUnit":"m.s-1","parameterCategory":1,"la1":30.2991,"la2":30.254,"lo1":-89.0895,"lo2":-89.0444,"dy":0.0017,"dx":0.0017,"nx":28,"ny":28,"refTime":"2024-03-02T03:00:00:Z","depth":0,"parameterNumber":3,"parameterNumberName":"V-component_of_WINDS"},"data":[0,0,0,0,0,0,0,0,0,0,0,0,0,0,0,0,0,0,0,0,0,0,0,0,0,0,0,0,0,0,0,0,0,0,0,0,0,0,0,0,0,0,0,0,0,0,0,0,0,0,0,0,0,0,0,0,0,0,-2.5948,-2.5948,0,-2.6006,-2.6007,-2.6008,-2.5994,-2.5993,-2.5992,-2.5991,-2.6047,-2.605,-2.6052,0,0,0,0,0,0,0,0,0,0,0,0,0,-2.5821,-2.5823,-2.5948,-2.5948,-2.5949,-2.6006,-2.6007,-2.6008,-2.5994,-2.5993,-2.5991,-2.599,-2.6046,-2.6049,-2.6052,0,0,0,0,0,0,0,0,0,0,0,0,0,-2.5877,-2.5824,-2.5947,-2.5949,-2.595,-2.6006,-2.6007,-2.6008,-2.5994,-2.5993,-2.5991,-2.599,-2.6045,-2.6049,-2.6053,-2.611,0,0,-2.6064,-2.6066,0,0,0,0,0,0,0,0,-2.5874,-2.5882,-2.5948,-2.5949,-2.595,-2.5991,-2.5983,-2.6042,-2.5995,-2.5977,-2.5991,-2.5989,-2.603,-2.6035,-2.6049,-2.6112,-2.6115,-2.6065,-2.6067,-2.6069,-2.607,0,0,0,0,0,0,0,-2.587,-2.5879,-2.5971,-2.5949,-2.595,-2.5946,-2.5952,-2.5994,-2.6012,-2.5979,-2.5978,-2.5985,-2.603,-2.6046,-2.605,-2.6116,-2.6065,-2.6068,-2.607,-2.6072,-2.6229,-2.6231,0,0,0,0,0,0,-2.5866,-2.5876,-2.5969,-2.5972,-2.5907,-2.595,-2.5957,-2.598,-2.6012,-2.6015,-2.5987,-2.5984,-2.604,-2.6046,-2.6052,-2.6122,-2.6069,-2.6072,-2.6074,-2.6227,-2.623,-2.6232,0,0,0,0,0,0,-2.5863,-2.5874,-2.5966,-2.5924,-2.5936,-2.5954,-2.598,-2.5982,-2.5997,-2.6018,-2.602,-2.6,-2.6039,-2.6047,-2.6096,-2.6123,-2.6074,-2.6077,-2.6225,-2.6228,-2.6231,-2.6261,0,0,0,0,0,0,-2.586,-2.5873,-2.5896,-2.5925,-2.5938,-2.601,-2.5981,-2.5984,-2.6004,-2.6002,-2.6031,-2.6034,-2.6038,-2.609,-2.61,-2.6128,-2.608,-2.6223,-2.6226,-2.623,-2.6257,-2.6264,-2.627,0,0,0,0,0,-2.5855,-2.5901,-2.5897,-2.5908,-2.5966,-2.6012,-2.6019,-2.6024,-2.6007,-2.6029,-2.6042,-2.6033,-2.6119,-2.6096,-2.6106,-2.6136,-2.6221,-2.6225,-2.6229,-2.6254,-2.6263,-2.627,0,0,0,0,0,0,-2.5873,-2.5905,-2.5901,-2.5957,-2.5982,-2.6009,-2.6038,-2.6033,-2.6062,-2.6059,-2.6063,-2.6069,-2.612,-2.6132,-2.6106,-2.6193,-2.6167,-2.6174,-2.6183,-2.6191,-2.6197,-2.6193,-2.6084,0,0,0,0,0,-2.5884,-2.5919,-2.5944,-2.5992,-2.6005,-2.6019,-2.6039,-2.6041,-2.6066,-2.6076,-2.6093,-2.6117,-2.615,-2.6171,-2.6202,-2.6259,-2.6265,-2.6285,-2.6291,-2.6296,-2.6302,-2.6333,-2.6343,-2.6246,-2.6246,-2.6245,0,0,-2.5906,-2.5928,-2.5949,-2.5996,-2.6015,-2.6051,-2.6028,-2.6066,-2.6093,-2.6082,-2.613,-2.6143,-2.617,-2.6223,-2.6248,-2.6236,-2.633,-2.6302,-2.6305,-2.6308,-2.6339,-2.6348,-2.6356,-2.6248,-2.6248,-2.6247,0,0,-2.5965,-2.5985,-2.6027,-2.6047,-2.6078,-2.6087,-2.6098,-2.6126,-2.6135,-2.6183,-2.6176,-2.6207,-2.6263,-2.6283,-2.63,-2.6368,-2.636,-2.6378,-2.6411,-2.6442,-2.6449,-2.6456,-2.6481,-2.649,-2.6383,-2.6383,-2.6383,0,-2.5988,-2.6043,-2.6049,-2.6089,-2.6109,-2.6103,-2.6146,-2.6165,-2.6203,-2.6217,-2.6203,-2.6274,-2.6292,-2.635,-2.6367,-2.6381,-2.6393,-2.6374,-2.6448,-2.6455,-2.6461,-2.6485,-2.6494,-2.6385,-2.6385,-2.6385,-2.6384,0,-2.607,-2.6108,-2.6138,-2.6178,-2.6202,-2.6242,-2.6254,-2.6278,-2.6278,-2.6289,-2.6339,-2.636,-2.6395,-2.6409,-2.6409,-2.6468,-2.646,-2.6447,-2.6422,-2.6473,-2.6495,-2.6504,-2.6388,-2.6387,-2.6387,-2.6386,0,0,-2.6141,-2.6184,-2.6195,-2.6213,-2.6247,-2.6276,-2.6316,-2.6353,-2.6373,-2.64,-2.6434,-2.6482,-2.6471,-2.6491,-2.6493,-2.652,-2.6573,-2.6504,-2.6505,-2.6516,-2.664,-2.665,-2.666,-2.6568,-2.657,-2.6571,-2.6638,0,-2.6203,-2.6276,-2.6283,-2.6348,-2.6384,-2.6379,-2.6414,-2.6438,-2.6449,-2.648,-2.6492,-2.6527,-2.6509,-2.6521,-2.6548,-2.6561,-2.6598,-2.6556,-2.6599,-2.6601,-2.6593,-2.6671,-2.6682,-2.6743,-2.6646,-2.6648,-2.6649,0,-2.6285,-2.6316,-2.6385,-2.6415,-2.643,-2.6462,-2.6496,-2.6526,-2.6553,-2.656,-2.6583,-2.6581,-2.6623,-2.6596,-2.6653,-2.6624,-2.6642,-2.6652,-2.6654,-2.6658,-2.6628,-2.6678,-2.6763,-2.6772,-2.6662,-2.6661,-2.666,0,-2.633,-2.6389,-2.6439,-2.6454,-2.649,-2.6513,-2.6528,-2.6554,-2.6576,-2.6606,-2.662,-2.6653,-2.6672,-2.6697,-2.6705,-2.6685,-2.6762,-2.6735,-2.6768,-2.6768,-2.6784,-2.6783,-2.6873,-2.6795,-2.6795,-2.6795,-2.6795,0,-2.6399,-2.6441,-2.646,-2.649,-2.6538,-2.6545,-2.6592,-2.6606,-2.6629,-2.6662,-2.6659,-2.6689,-2.6698,-2.6729,-2.6735,-2.6782,-2.679,-2.6796,-2.6797,-2.6796,-2.6796,-2.6808,-2.6804,-2.6798,-2.6797,-2.6797,-2.6796,0,-2.6458,-2.6472,-2.6525,-2.6555,-2.6564,-2.6598,-2.6623,-2.6652,-2.6663,-2.6705,-2.6715,-2.6732,-2.6769,-2.678,-2.6824,-2.6828,-2.6883,-2.688,-2.6874,-2.6874,-2.6906,-2.6903,-2.7008,-2.7022,-2.6935,-2.6936,-2.6936,0,-2.6501,-2.6533,-2.6568,-2.659,-2.6608,-2.6643,-2.6666,-2.6675,-2.6699,-2.6733,-2.6758,-2.6795,-2.6825,-2.6885,-2.6901,-2.6935,-2.6933,-2.6967,-2.6938,-2.6936,-2.6934,-2.6932,-2.6935,-2.6972,-2.6973,-2.6974,-2.6975,0,-2.6576,-2.6581,-2.6615,-2.6652,-2.6679,-2.6708,-2.6735,-2.6754,-2.6766,-2.6793,-2.6832,-2.6856,-2.6902,-2.6939,-2.6974,-2.6989,-2.6984,-2.6984,-2.6993,-2.6993,-2.6989,-2.6992,-2.689,-2.6982,-2.6981,-2.698,-2.698,-2.698,-2.6628,-2.6657,-2.6687,-2.6725,-2.6747,-2.6773,-2.6802,-2.6818,-2.6851,-2.689,-2.6893,-2.6936,-2.6962,-2.7009,-2.7026,-2.7059,-2.7048,-2.7062,-2.7065,-2.7069,-2.7072,-2.6984,-2.7065,-2.7065,-2.7064,-2.7064,-2.7064,0,-2.6703,-2.6722,-2.6757,-2.6797,-2.6827,-2.6821,-2.6852,-2.6877,-2.6914,-2.694,-2.6971,-2.7016,-2.7052,-2.7072,-2.7108,-2.713,-2.7129,-2.7139,-2.7138,-2.7141,-2.7078,-2.7067,-2.714,-2.714,-2.714,-2.714,-2.714,-2.714,-2.6746,-2.6796,-2.6805,-2.6866,-2.6884,-2.6927,-2.6945,-2.6969,-2.699,-2.7041,-2.7072,-2.7085,-2.7108,-2.7146,-2.7179,-2.7184,-2.7197,-2.7209,-2.7212,-2.7153,-2.7146,-2.7138,-2.7128,-2.7212,-2.7212,-2.7273,-2.7273,-2.7274]}]]